DW1590 Weather Reports


Display with metric or nautical units.
time (UTC)temp
F
wind
direction
speed
MPH
gust
MPH
rain 1hr
in
rain 24hr
in
rain mn
in
humidity
%
barometer
mb
20260505010055 68 187 0.0 0.0 0.00 0.00 0.00 51 1009.2
20260505004551 69 184 1.0 0.0 0.00 0.00 0.00 49 1009.2
20260505003046 70 196 0.0 0.0 0.00 0.00 0.00 47 1009.0
20260505001550 71 187 2.0 0.0 0.00 0.00 0.00 45 1009.1
20260505000042 71 202 2.0 0.0 0.00 0.00 0.00 45 1008.9
20260504234533 72 208 4.0 0.0 0.00 0.00 0.00 44 1009.0
20260504233029 72 167 3.0 0.0 0.00 0.00 0.00 44 1009.0
20260504231530 72 121 2.0 0.0 0.00 0.00 0.00 43 1008.9
20260504230020 73 176 4.0 0.0 0.00 0.00 0.00 42 1009.0
20260504224517 73 131 7.0 0.0 0.00 0.00 0.00 41 1009.0
20260504223011 75 200 5.0 0.0 0.00 0.00 0.00 41 1008.9
20260504221507 75 215 4.0 0.0 0.00 0.00 0.00 40 1008.7
20260504220009 75 157 5.0 0.0 0.00 0.00 0.00 40 1008.7
20260504214558 74 122 3.0 0.0 0.00 0.00 0.00 39 1008.9
20260504213054 76 167 4.0 0.0 0.00 0.00 0.00 37 1008.9
20260504211552 76 92 4.0 0.0 0.00 0.00 0.00 38 1008.9
20260504204548 75 194 5.0 0.0 0.00 0.00 0.00 39 1009.0
20260504203043 75 133 6.0 0.0 0.00 0.00 0.00 39 1009.1
20260504201532 75 241 5.0 0.0 0.00 0.00 0.00 38 1009.3
20260504200028 75 148 4.0 0.0 0.00 0.00 0.00 38 1009.6
20260504194536 75 224 4.0 0.0 0.00 0.00 0.00 40 1009.7
20260504193020 75 206 3.0 0.0 0.00 0.00 0.00 39 1010.0
20260504191514 75 110 2.0 0.0 0.00 0.00 0.00 41 1010.2
20260504190010 74 180 5.0 0.0 0.00 0.00 0.00 40 1010.5
20260504184510 73 198 4.0 0.0 0.00 0.00 0.00 41 1010.9
20260504183002 73 167 5.0 0.0 0.00 0.00 0.00 40 1011.0
20260504181603 72 92 5.0 0.0 0.00 0.00 0.00 41 1011.1
20260504180143 72 132 3.0 0.0 0.00 0.00 0.00 40 1011.3
20260504174550 73 169 4.0 0.0 0.00 0.00 0.00 40 1011.7
20260504173056 71 213 4.0 0.0 0.00 0.00 0.00 41 1011.7
20260504171540 71 244 4.0 0.0 0.00 0.00 0.00 39 1012.0
20260504081501 47 225 0.0 0.0 0.00 0.00 0.00 17 1014.9
20260504050005 44 226 1.0 0.0 0.00 0.00 0.00 100 1015.2
20260504044501 44 225 0.0 0.0 0.00 0.00 0.00 100 1015.1
20260504043101 44 225 2.0 0.0 0.00 0.00 0.00 100 1015.2
20260504041552 44 232 1.0 0.0 0.00 0.00 0.00 100 1015.0
20260504040048 43 248 0.0 0.0 0.00 0.00 0.00 100 1015.1
20260504034549 43 248 0.0 0.0 0.00 0.00 0.00 1 1015.1
20260504033043 44 248 0.0 0.0 0.00 0.00 0.00 10 1014.8
20260504031542 44 248 0.0 0.0 0.00 0.00 0.00 19 1014.8
20260504030039 45 248 0.0 0.0 0.00 0.00 0.00 37 1014.6
20260504024529 45 248 0.0 0.0 0.00 0.00 0.00 45 1014.5
20260504023028 46 248 0.0 0.0 0.00 0.00 0.00 52 1014.6
20260504021528 46 248 0.0 0.0 0.00 0.00 0.00 59 1014.5
20260504020030 47 248 0.0 0.0 0.00 0.00 0.00 62 1014.5
20260504014527 47 248 0.0 0.0 0.00 0.00 0.00 63 1014.3
20260504013027 48 248 0.0 0.0 0.00 0.00 0.00 64 1014.2